Home   Weather   Yangon   Past weeks
Flag for Myanmar

Past Weather in Yangon, Myanmar — Yesterday and Last 2 Weeks

Now
82 °F

Broken clouds.


Feels Like: 91 °F
Forecast: 92 / 81 °F
Wind: 7 mph from Southwest

Location: Rangoon Airport

Current Time: May 24, 2019 at 7:33:09 am

Latest Report: May 24, 2019 at 6:30 am


Visibility: 4 mi

Pressure: 29.77 "Hg

Humidity: 84%

Dew Point: 77 °F

Location of YangonLocation

Past Weather in Yangon — Graph

°F

Yangon Temperature Yesterday

Maximum temperature yesterday: 99 °F (at 1:30 pm)
Minimum temperature yesterday: 79 °F (at 12:00 am)
Average temperature yesterday: 87 °F

High & Low Weather Summary for the Past Weeks

 TemperatureHumidityPressure
High100 °F (May 16, 3:30 pm)94% (May 11, 6:30 am)29.86 "Hg (May 11, 6:30 am)
Low77 °F (May 14, 3:00 am)40% (May 17, 2:00 pm)29.56 "Hg (May 9, 5:00 pm)
Average88 °F69%29.74 "Hg
* Reported May 9 6:00 am — May 24 6:00 am, Yangon. Weather by CustomWeather, © 2019

Note: Actual official high and low records may vary slightly from our data, if they occured in-between our weather recording intervals... More about our weather records

Advertising

Yangon Weather History for the Previous 24 Hours

Scroll right to see more
 ConditionsComfort  
Time TempWeatherWind HumidityBarometerVisibility
6:00 am
Fri, May 24
82 °FPartly cloudy.8 mph84%29.77 "Hg4 mi
5:30 am82 °FPartly cloudy.8 mph84%29.74 "Hg4 mi
5:00 am82 °FPartly cloudy.3 mph84%29.74 "Hg4 mi
4:30 am82 °FPartly cloudy.7 mph84%29.74 "Hg4 mi
4:00 am82 °FPassing clouds.6 mph84%29.74 "Hg4 mi
3:30 am82 °FPassing clouds.6 mph84%29.74 "Hg4 mi
3:00 am82 °FPassing clouds.5 mph84%29.74 "Hg4 mi
2:30 am82 °FPassing clouds.7 mph84%29.74 "Hg4 mi
2:00 am82 °FPassing clouds.6 mph84%29.74 "Hg4 mi
1:30 am82 °FPassing clouds.5 mph84%29.77 "Hg4 mi
1:00 am82 °FPassing clouds.7 mph84%29.77 "Hg4 mi
12:30 am84 °FPassing clouds.7 mph74%29.77 "Hg4 mi
12:00 am84 °FPassing clouds.7 mph74%29.80 "Hg4 mi
11:30 pm
Thu, May 23
84 °FPassing clouds.6 mph74%29.80 "Hg4 mi
11:00 pm84 °FPassing clouds.8 mph74%29.77 "Hg4 mi
10:30 pm84 °FPassing clouds.8 mph74%29.77 "Hg4 mi
10:00 pm86 °FPassing clouds.8 mph70%29.77 "Hg4 mi
9:30 pm86 °FPassing clouds.5 mph70%29.77 "Hg4 mi
9:00 pm86 °FPassing clouds.5 mph70%29.77 "Hg4 mi
8:30 pm86 °FPassing clouds.8 mph70%29.74 "Hg4 mi
8:00 pm86 °FPassing clouds.8 mph70%29.74 "Hg4 mi
7:30 pm88 °FPassing clouds.9 mph66%29.74 "Hg4 mi
7:00 pm90 °FPartly sunny.12 mph63%29.71 "Hg4 mi
6:30 pm91 °FPartly sunny.12 mph59%29.71 "Hg4 mi
6:00 pm91 °FPartly sunny.9 mph59%29.68 "Hg4 mi
5:30 pm95 °FPartly sunny.9 mph53%29.68 "Hg4 mi
5:00 pm97 °FPartly sunny.12 mph53%29.65 "Hg4 mi
4:30 pm97 °FPartly sunny.12 mph53%29.68 "Hg4 mi
3:04 pm99 °FPartly sunny.10 mph53%29.68 "Hg5 mi
2:00 pm99 °FPartly sunny.5 mph53%29.74 "Hg5 mi
1:30 pm99 °FPartly sunny.5 mph53%29.74 "Hg5 mi
1:00 pm97 °FPartly sunny.5 mph53%29.77 "Hg5 mi
12:30 pm97 °FPartly sunny.5 mph53%29.80 "Hg5 mi
12:00 pm93 °FPartly sunny.8 mph63%29.80 "Hg5 mi
11:30 am93 °FPartly sunny.9 mph63%29.80 "Hg5 mi
10:30 am93 °FPartly sunny.8 mph63%29.80 "Hg5 mi
10:00 am93 °FScattered clouds.7 mph59%29.83 "Hg5 mi
9:30 am91 °FScattered clouds.7 mph71%29.86 "Hg5 mi
9:00 am88 °FScattered clouds.7 mph75%29.83 "Hg4 mi
8:30 am88 °FScattered clouds.5 mph75%29.83 "Hg4 mi
8:00 am86 °FPassing clouds.5 mph75%29.83 "Hg4 mi
7:30 am84 °FPassing clouds.5 mph84%29.83 "Hg4 mi
7:00 am82 °FScattered clouds.6 mph84%29.80 "Hg4 mi
Weather by CustomWeather, © 2019

See weather overview